Flag for Belgium Weather past 2 weeks in Kortrijk, Belgium

Now
39 °F

Clear.


Feels Like: 37 °F
Forecast: 38 / 50 °F
Wind: 3 mph from Southwest

Location: Lille Airport

Current Time: Mar 6, 2015 at 12:36:27 AM

Latest Report: Mar 6, 2015 at 12:00 AM


Visibility: 10 mi

Pressure: 30.66 "Hg

Humidity: 81%

Dew point: 34 °F

Location of KortrijkLocation

Historic Weather in Kortrijk — Graph

°F

Kortrijk temperature yesterday

Maximum temperature yesterday: 52 °F (at 2:30 PM)
Minimum temperature yesterday: 30 °F (at 4:00 AM)
Average temperature yesterday: 40 °F

Past Weeks' High & Low Weather Summary

 TemperatureHumidityPressure
High52 °F (Mar 1, 2:00 PM)100% (Feb 18, 11:00 PM)30.72 "Hg (Feb 18, 11:00 PM)
Low30 °F (Feb 22, 4:00 AM)50% (Mar 5, 2:30 PM)29.36 "Hg (Feb 23, 4:00 AM)
Average41 °F84%29.93 "Hg
* Reported Feb 18 11:00 PM — Mar 5 11:30 PM, Kortrijk, Weather by CustomWeather, © 2015

Note: Actual official high and low records may vary slightly from our data, if they occured in-between our weather recording intervals... More about our weather records

Advertising

Kortrijk weather history for previous 24 hours

 ConditionsComfort  
Time TempWeatherWind HumidityBarometerVisibility
11:30 PM
Thu, Mar 5
39 °FClear.5 mph81%30.66 "Hg10 mi
11:00 PM37 °FClear.6 mph87%30.66 "Hg10 mi
10:30 PM37 °FClear.6 mph87%30.66 "Hg10 mi
10:00 PM39 °FClear.9 mph81%30.66 "Hg10 mi
9:30 PM41 °FClear.6 mph76%30.66 "Hg10 mi
9:00 PM41 °FClear.6 mph76%30.66 "Hg10 mi
8:30 PM41 °FClear.7 mph76%30.66 "Hg10 mi
8:00 PM41 °FClear.7 mph81%30.66 "Hg10 mi
7:30 PM43 °FClear.7 mph76%30.66 "Hg10 mi
7:00 PM45 °FClear.8 mph71%30.66 "Hg10 mi
6:30 PM46 °FPartly sunny.8 mph66%30.66 "HgN/A
6:00 PM48 °FPartly sunny.9 mph58%30.66 "HgN/A
5:30 PM48 °FPartly sunny.10 mph58%30.66 "HgN/A
5:00 PM50 °FPartly sunny.10 mph54%30.66 "HgN/A
4:30 PM50 °FScattered clouds.10 mph54%30.66 "HgN/A
4:00 PM50 °FScattered clouds.8 mph58%30.66 "HgN/A
3:30 PM50 °FPartly sunny.8 mph54%30.66 "HgN/A
3:00 PM50 °FPartly sunny.10 mph50%30.66 "HgN/A
2:30 PM52 °FBroken clouds.8 mph50%30.66 "HgN/A
2:00 PM48 °FScattered clouds.8 mph58%30.69 "HgN/A
1:30 PM50 °FScattered clouds.8 mph58%30.69 "HgN/A
1:00 PM48 °FPassing clouds.9 mph66%30.69 "HgN/A
12:40 PM48 °FPassing clouds.9 mph66%30.69 "HgN/A
12:00 PM46 °FPassing clouds.10 mph71%30.69 "HgN/A
11:30 AM46 °FPassing clouds.7 mph76%30.72 "HgN/A
11:00 AM45 °FPassing clouds.6 mph81%30.69 "HgN/A
10:30 AM41 °FSunny.8 mph93%30.72 "Hg10 mi
10:00 AM39 °FClear.9 mph93%30.72 "Hg5 mi
9:30 AM37 °FClear.6 mph100%30.72 "Hg5 mi
9:00 AM36 °FClear.3 mph100%30.69 "Hg4 mi
8:30 AM34 °FClear.7 mph100%30.69 "Hg4 mi
8:00 AM32 °FClear.9 mph100%30.69 "Hg3 mi
7:30 AM32 °FFog.7 mph93%30.69 "Hg3 mi
7:00 AM32 °FIce fog.3 mph100%30.69 "Hg2 mi
6:30 AM32 °FIce fog.6 mph93%30.69 "Hg2 mi
6:00 AM30 °FIce fog.7 mph100%30.66 "Hg3 mi
5:30 AM32 °FClear.6 mph93%30.66 "Hg4 mi
4:00 AM30 °FClear.6 mph100%30.66 "Hg10 mi
3:00 AM32 °FClear.3 mph100%30.63 "HgN/A
2:30 AM32 °FClear.6 mph100%30.63 "HgN/A
2:00 AM32 °FClear.6 mph100%30.63 "HgN/A
1:30 AM32 °FClear.6 mph93%30.63 "HgN/A
1:00 AM34 °FClear.5 mph93%30.63 "Hg10 mi
12:30 AM36 °FClear.6 mph87%30.60 "Hg10 mi
12:00 AM36 °FClear.6 mph93%30.60 "Hg10 mi
Weather by CustomWeather, © 2015

See weather overviewHow to use our weather pages